テナグラ彗星

C/2013 G9 ( Tenagra )

English version
Home page
Updated on March 26, 2016

---------------------------------------------------------------------

・ プロフィール

発見日 2013年4月15日
発見光度 19.6等
発見者 M. Schwartz and P. R. Holvorcem (Tenagra II, near Nogales, AZ, U.S.A.)

・ 写真集

・ 軌道要素

Epoch 2015 Jan. 18.0 TT = JDT 2457040.5
T 2015 Jan. 14.75789 TT                                 MPCW
q   5.3375090            (2000.0)            P               Q
z  -0.0001695      Peri.  204.94511     -0.94096377     -0.09715097
 +/-0.0000008      Node    35.68759     -0.13078849     +0.98788323
e   1.0009049      Incl.  146.23035     -0.31222036     -0.12103059
From 385 observations 2013 Apr. 15-2015 Oct. 20, mean residual 0".5.

・ 星図

・ 光度変化

        m1 = -1.8 + 5 logΔ + 20.0 log r(t + 80)

---------------------------------------------------------------------

軌道要素はM.P.E.C. 2015-U54に掲載されたものです。
星図はステラナビゲータ Ver.8 (アストロアーツ) で作成したものです。
光度グラフはComet for Windowsで作成したものです。

---------------------------------------------------------------------

Copyright(C) Seiichi Yoshida (comet@aerith.net). All rights reserved.